105P/Singer Brewster (2012)

Japanese version
Home page
Updated on March 6, 2011

---------------------------------------------------------------------

* Profile

* Orbital Elements

The following orbital elements are taken from MPC 65937:

Epoch 2012 Mar. 14.0 TT = JDT 2456000.5
T 2012 Feb. 26.1574 TT                                  MPC
q   2.050860             (2000.0)            P               Q
n   0.1523644      Peri.   46.6702      -0.5157094      +0.8560778
a   3.471738       Node   192.4185      -0.8249507      -0.5069626
e   0.409270       Incl.    9.1706      -0.2313012      -0.1005968
P   6.47
From 261 observations 1986-2006, mean residual 0".7.  Nongravitational
     parameters A1 = +0.37, A2 = -0.0703.

* Finding Charts

* Magnitudes Graph

        m1 = 13.8 + 5 log d + 7.5 log r

---------------------------------------------------------------------

The orbital elements are published at the MPC Ephemerides and Orbital Elements.
The charts are made with StellaNavigator Ver.8 (AstroArts).
The magnitudes graphs are made with Comet for Windows.

---------------------------------------------------------------------

Copyright(C) Seiichi Yoshida (comet@aerith.net). All rights reserved.